EW4932 Weather Reports


time (UTC)temp
F
wind
direction
speed
knots
gust
knots
rain 1hr
in
rain 24hr
in
rain mn
in
humidity
%
barometer
mb
20260507063006 56 0 0.0 0.0 0.00 0.00 0.00 79 1020.8
20260507062505 56 0 0.0 0.0 0.00 0.00 0.00 79 1020.8
20260507062005 56 0 0.0 0.0 0.00 0.00 0.00 79 1020.8
20260507061005 56 0 0.0 0.0 0.00 0.00 0.00 79 1020.8
20260507060505 56 0 0.0 0.0 0.00 0.00 0.00 79 1020.8
20260507060006 56 0 0.0 0.0 0.00 0.00 0.00 79 1020.8
20260507055505 56 0 0.0 0.0 0.00 0.00 0.00 79 1020.8
20260507055005 56 0 0.0 0.0 0.00 0.00 0.00 79 1020.8
20260507054505 57 0 0.0 0.0 0.00 0.00 0.00 78 1020.7
20260507054005 57 0 0.0 0.0 0.00 0.00 0.00 78 1020.8
20260507053506 57 0 0.0 0.0 0.00 0.00 0.00 78 1020.7
20260507053005 57 0 0.0 0.0 0.00 0.00 0.00 78 1020.7
20260507052005 57 0 0.0 0.0 0.00 0.00 0.00 78 1020.6
20260507051505 57 21 0.0 3.5 0.00 0.00 0.00 77 1020.7
20260507051005 57 27 0.9 3.5 0.00 0.00 0.00 77 1020.7
20260507050505 57 26 0.0 3.5 0.00 0.00 0.00 77 1020.7
20260507045505 58 0 0.0 0.0 0.00 0.00 0.00 77 1020.7
20260507045005 58 11 0.0 1.7 0.00 0.00 0.00 76 1020.7
20260507044506 58 16 0.0 4.3 0.00 0.00 0.00 76 1020.7
20260507044005 58 25 0.0 4.3 0.00 0.00 0.00 76 1020.7
20260507043505 58 14 0.9 3.5 0.00 0.00 0.00 76 1020.7
20260507043005 58 5 0.9 3.5 0.00 0.00 0.00 75 1020.6
20260507042505 59 356 0.0 2.6 0.00 0.00 0.00 75 1020.6
20260507042005 59 342 0.0 0.9 0.00 0.00 0.00 75 1020.5
20260507041505 59 7 0.0 4.3 0.00 0.00 0.00 75 1020.5
20260507041005 59 7 0.0 4.3 0.00 0.00 0.00 75 1020.4
20260507040505 59 344 0.0 1.7 0.00 0.00 0.00 75 1020.3
20260507040005 60 6 0.9 4.3 0.00 0.00 0.00 74 1020.2
20260507035506 60 12 0.9 4.3 0.00 0.00 0.00 74 1020.1
20260507035005 60 8 0.9 3.5 0.00 0.00 0.00 74 1020.1
20260507034506 60 2 0.0 3.5 0.00 0.00 0.00 75 1020.0
20260507034005 60 354 0.0 2.6 0.00 0.00 0.00 75 1019.9
20260507033505 60 341 0.0 3.5 0.00 0.00 0.00 74 1019.9
20260507033005 60 346 0.9 3.5 0.00 0.00 0.00 74 1019.8
20260507032006 61 325 0.0 0.9 0.00 0.00 0.00 74 1019.6
20260507031505 61 11 0.9 7.0 0.00 0.00 0.00 73 1019.5
20260507031005 62 15 0.9 7.0 0.00 0.00 0.00 73 1019.5
20260507030505 62 22 0.0 4.3 0.00 0.00 0.00 73 1019.5
20260507030005 62 5 0.0 0.9 0.00 0.00 0.00 73 1019.4
20260507025507 62 338 0.0 1.7 0.00 0.00 0.00 73 1019.4
20260507025006 62 337 0.0 1.7 0.00 0.00 0.00 73 1019.2
20260507024505 63 11 0.0 1.7 0.00 0.00 0.00 72 1019.2
20260507023506 63 11 0.0 1.7 0.00 0.00 0.00 71 1019.1
20260507023005 63 13 0.0 1.7 0.00 0.00 0.00 71 1019.1
20260507022505 63 355 0.0 3.5 0.00 0.00 0.00 70 1019.1
20260507022005 64 354 0.0 3.5 0.00 0.00 0.00 70 1019.1
20260507021505 64 0 0.0 0.0 0.00 0.00 0.00 69 1019.2
20260507021005 64 0 0.0 0.0 0.00 0.00 0.00 69 1019.1
20260507020505 64 350 0.0 1.7 0.00 0.00 0.00 69 1019.1
20260507020005 64 347 0.9 3.5 0.00 0.00 0.00 69 1019.1
20260507015506 65 357 0.9 3.5 0.00 0.00 0.00 68 1019.2
20260507015005 65 3 0.9 5.2 0.00 0.00 0.00 69 1019.2
20260507014505 65 356 0.9 7.0 0.00 0.00 0.00 69 1019.2
20260507014005 65 24 0.9 7.0 0.00 0.00 0.00 68 1019.2
20260507013505 66 20 0.9 6.1 0.00 0.00 0.00 68 1019.2
20260507013006 66 4 0.9 8.7 0.00 0.00 0.00 68 1019.2
20260507012505 66 2 1.7 8.7 0.00 0.00 0.00 68 1019.1
20260507012005 66 357 0.9 7.0 0.00 0.00 0.00 69 1019.1
20260507011506 67 2 0.9 7.0 0.00 0.00 0.00 68 1019.1
20260507011005 67 11 0.9 6.1 0.00 0.00 0.00 68 1019.1
20260507010505 67 18 0.9 3.5 0.00 0.00 0.00 68 1019.0
20260507005505 67 1 0.0 0.9 0.00 0.00 0.00 69 1019.0
20260507005005 67 13 0.9 7.0 0.00 0.00 0.00 69 1019.0
20260507004505 68 20 0.9 7.0 0.00 0.00 0.00 67 1019.0
20260507004005 68 18 0.9 3.5 0.00 0.00 0.00 68 1019.0
20260507003506 68 10 0.9 5.2 0.00 0.00 0.00 68 1018.9
20260507003005 68 340 0.9 5.2 0.00 0.00 0.00 68 1018.9
20260507002505 68 331 0.9 3.5 0.00 0.00 0.00 67 1018.8
20260507002005 68 357 0.9 3.5 0.00 0.00 0.00 65 1018.8
20260507001005 69 353 0.9 6.1 0.00 0.00 0.00 66 1018.9
20260507000506 69 354 0.0 4.3 0.00 0.00 0.00 67 1018.8
20260507000005 69 108 0.0 1.7 0.00 0.00 0.00 64 1018.9
20260506235506 69 320 0.0 2.6 0.00 0.00 0.00 65 1018.8
20260506235005 69 325 0.9 2.6 0.00 0.00 0.00 66 1018.8
20260506234507 69 103 0.9 3.5 0.00 0.00 0.00 66 1018.9
20260506234006 69 107 0.0 3.5 0.00 0.00 0.00 63 1018.8
20260506233505 69 342 0.0 2.6 0.00 0.00 0.00 63 1018.8
20260506233006 69 353 0.0 3.5 0.00 0.00 0.00 67 1018.8
20260506232505 69 2 0.9 3.5 0.00 0.00 0.00 66 1018.8
20260506232005 69 83 0.9 3.5 0.00 0.00 0.00 67 1018.8
20260506231505 69 108 0.9 3.5 0.00 0.00 0.00 64 1018.9
20260506231006 69 90 0.9 3.5 0.00 0.00 0.00 64 1019.0
20260506230006 69 0 0.0 0.0 0.00 0.00 0.00 64 1019.1
20260506225505 69 0 0.0 0.0 0.00 0.00 0.00 66 1019.1
20260506225006 68 291 0.0 1.7 0.00 0.00 0.00 69 1019.2
20260506224505 68 262 0.0 1.7 0.00 0.00 0.00 66 1019.2
20260506224005 68 228 0.0 4.3 0.00 0.00 0.00 65 1019.3
20260506223506 69 224 0.9 4.3 0.00 0.00 0.00 63 1019.4
20260506223005 69 211 0.9 4.3 0.00 0.00 0.00 63 1019.4
20260506221005 68 107 0.9 3.5 0.00 0.00 0.00 65 1019.5
20260506220505 68 111 0.9 3.5 0.00 0.00 0.00 66 1019.6
20260506220005 68 116 0.0 2.6 0.00 0.00 0.00 67 1019.6
20260506215505 68 65 0.0 1.7 0.00 0.00 0.00 65 1019.6
20260506215006 68 85 0.0 4.3 0.00 0.00 0.00 66 1019.5
20260506214505 68 97 0.0 4.3 0.00 0.00 0.00 67 1019.5
20260506214006 67 165 0.0 1.7 0.00 0.00 0.00 70 1019.5
20260506213505 68 160 0.9 2.6 0.00 0.00 0.00 64 1019.5
20260506213006 68 164 0.9 4.3 0.00 0.00 0.00 65 1019.6
20260506212505 69 159 0.9 4.3 0.00 0.00 0.00 67 1019.7
20260506212005 68 199 0.9 4.3 0.00 0.00 0.00 66 1019.8
20260506211505 68 237 0.9 4.3 0.00 0.00 0.00 68 1019.8
20260506211005 66 233 0.9 3.5 0.00 0.00 0.00 69 1019.9
20260506210505 66 203 0.9 3.5 0.00 0.00 0.00 68 1020.1
20260506210005 66 208 0.9 4.3 0.00 0.00 0.00 69 1020.0
20260506205505 66 225 1.7 5.2 0.00 0.00 0.00 70 1020.0
20260506205006 66 217 1.7 6.1 0.00 0.00 0.00 68 1020.0
20260506204505 66 215 1.7 6.1 0.00 0.00 0.00 68 1020.0
20260506204005 67 204 0.9 4.3 0.00 0.00 0.00 69 1019.9
20260506203505 66 224 1.7 6.1 0.00 0.00 0.00 70 1019.9
20260506203006 66 212 0.9 6.1 0.00 0.00 0.00 70 1019.9
20260506202005 65 125 1.7 7.8 0.00 0.00 0.00 72 1019.9
20260506201005 64 0 0.0 0.0 0.00 0.00 0.00 75 1020.0
20260506200505 64 0 0.0 0.0 0.00 0.00 0.00 74 1020.1
20260506200005 64 235 0.0 2.6 0.00 0.00 0.00 72 1020.2
20260506195505 64 235 0.0 2.6 0.00 0.00 0.00 74 1020.2
20260506195005 64 0 0.0 0.0 0.00 0.00 0.00 76 1020.3
20260506194505 63 0 0.0 0.0 0.00 0.00 0.00 75 1020.4
20260506193505 63 193 0.0 1.7 0.00 0.00 0.00 74 1020.4
20260506193005 63 209 0.0 3.5 0.00 0.00 0.00 75 1020.4
20260506192505 63 206 0.9 3.5 0.00 0.00 0.00 74 1020.4
20260506192005 63 203 0.9 4.3 0.00 0.00 0.00 75 1020.4
20260506191505 63 205 0.9 4.3 0.00 0.00 0.00 73 1020.4
20260506191004 63 119 0.0 2.6 0.00 0.00 0.00 74 1020.3
20260506190505 63 129 0.9 2.6 0.00 0.00 0.00 77 1020.3
20260506190005 63 134 0.9 4.3 0.00 0.00 0.00 76 1020.3
20260506185505 63 122 0.9 4.3 0.00 0.00 0.00 76 1020.4
20260506185005 62 169 0.9 3.5 0.00 0.00 0.00 75 1020.3
20260506184506 62 227 0.9 3.5 0.00 0.00 0.00 76 1020.2
20260506184005 62 210 0.9 3.5 0.00 0.00 0.00 75 1020.2
20260506183505 62 189 0.9 3.5 0.00 0.00 0.00 76 1020.2
20260506182006 62 176 0.0 1.7 0.00 0.00 0.00 75 1020.3
20260506181505 62 284 0.0 3.5 0.00 0.00 0.00 74 1020.4
20260506181005 62 258 0.0 3.5 0.00 0.00 0.00 80 1020.3
20260506180504 61 203 0.9 2.6 0.00 0.00 0.00 77 1020.3
20260506180006 61 196 0.0 2.6 0.00 0.00 0.00 76 1020.3
20260506175506 61 206 0.0 2.6 0.00 0.00 0.00 78 1020.3
20260506175005 60 210 0.9 2.6 0.00 0.00 0.00 78 1020.4
20260506174505 60 223 0.9 5.2 0.00 0.00 0.00 78 1020.4
20260506174005 60 224 0.9 5.2 0.00 0.00 0.00 78 1020.4
20260506173505 60 233 0.9 3.5 0.00 0.00 0.00 79 1020.3
20260506173005 59 237 0.9 3.5 0.00 0.00 0.00 79 1020.2
20260506172506 59 239 0.0 3.5 0.00 0.00 0.00 79 1020.1
20260506172005 59 0 0.0 0.0 0.00 0.00 0.00 81 1020.1
20260506171506 59 0 0.0 0.0 0.00 0.00 0.00 82 1020.1
20260506171005 59 0 0.0 0.0 0.00 0.00 0.00 82 1020.1
20260506170504 59 0 0.0 0.0 0.00 0.00 0.00 82 1020.2
20260506165505 58 0 0.0 0.0 0.00 0.00 0.00 82 1020.3
20260506165005 58 0 0.0 0.0 0.00 0.00 0.00 82 1020.3
20260506164007 58 0 0.0 0.0 0.00 0.00 0.00 82 1020.2
20260506163505 58 0 0.0 0.0 0.00 0.00 0.00 82 1020.1
20260506163006 58 0 0.0 0.0 0.00 0.00 0.00 84 1020.2
20260506162505 58 0 0.0 0.0 0.00 0.00 0.00 83 1020.2
20260506162005 58 0 0.0 0.0 0.00 0.00 0.00 83 1020.1
20260506161505 58 182 0.0 1.7 0.00 0.00 0.00 83 1020.0
20260506161005 58 165 0.0 1.7 0.00 0.00 0.00 83 1019.9
20260506160505 58 141 0.0 3.5 0.00 0.00 0.00 83 1019.9
20260506160005 58 151 0.0 3.5 0.00 0.00 0.00 83 1019.9
20260506155005 58 190 0.0 4.3 0.00 0.00 0.00 84 1019.8
20260506154505 57 202 0.9 4.3 0.00 0.00 0.00 84 1019.5
20260506154005 57 200 0.9 3.5 0.00 0.00 0.00 85 1019.2
20260506153505 57 208 0.0 2.6 0.00 0.00 0.00 85 1019.3
20260506152505 57 0 0.0 0.0 0.00 0.00 0.00 84 1019.9
20260506152005 57 0 0.0 0.0 0.00 0.00 0.00 85 1020.1
20260506151505 57 0 0.0 0.0 0.00 0.00 0.00 85 1020.2
20260506151005 57 0 0.0 0.0 0.00 0.00 0.00 85 1020.3
20260506150505 57 0 0.0 0.0 0.00 0.00 0.00 85 1020.2
20260506145505 57 0 0.0 0.0 0.00 0.00 0.00 84 1020.1
20260506145005 57 217 0.0 0.9 0.00 0.00 0.00 85 1020.1
20260506144505 57 224 0.0 0.9 0.00 0.00 0.00 85 1019.9
20260506144005 57 226 0.0 2.6 0.00 0.00 0.00 84 1019.9
20260506143507 57 226 0.0 2.6 0.00 0.00 0.00 84 1019.9
20260506143005 57 220 0.0 0.9 0.00 0.00 0.00 84 1019.7
20260506142505 57 217 0.0 2.6 0.00 0.00 0.00 84 1019.5
20260506142005 57 208 0.0 3.5 0.00 0.00 0.00 84 1019.4
20260506141505 57 204 0.0 3.5 0.00 0.00 0.00 84 1019.2
20260506141006 57 219 0.0 0.9 0.00 0.00 0.00 84 1019.1
20260506140006 57 0 0.0 0.0 0.00 0.00 0.00 85 1019.2
20260506135506 57 0 0.0 0.0 0.00 0.00 0.00 84 1019.1
20260506135005 57 0 0.0 0.0 0.00 0.00 0.00 84 1019.1
20260506133505 57 104 0.0 0.9 0.00 0.00 0.00 84 1019.0
20260506133005 57 104 0.0 0.9 0.00 0.00 0.00 84 1019.0
20260506132505 57 0 0.0 0.0 0.00 0.00 0.00 84 1018.9
20260506132005 57 115 0.0 0.9 0.00 0.00 0.00 84 1018.9
20260506131505 57 115 0.0 0.9 0.00 0.00 0.00 84 1018.9
20260506131005 57 0 0.0 0.0 0.00 0.00 0.00 84 1018.8
20260506130506 57 165 0.0 2.6 0.00 0.00 0.00 84 1018.6
20260506130005 57 165 0.0 2.6 0.00 0.00 0.00 84 1018.7
20260506125505 57 142 0.0 0.9 0.00 0.00 0.00 84 1018.7
20260506125005 57 142 0.0 0.9 0.00 0.00 0.00 84 1018.7
20260506124505 57 118 0.0 0.9 0.00 0.00 0.00 83 1018.6
20260506123505 57 128 0.9 3.5 0.00 0.00 0.00 83 1018.5
20260506123005 57 140 0.0 3.5 0.00 0.00 0.00 83 1018.6
20260506122505 57 96 0.0 3.5 0.00 0.00 0.00 83 1018.7
20260506122005 57 0 0.0 0.0 0.00 0.00 0.00 83 1018.7
20260506121006 58 0 0.0 0.0 0.00 0.00 0.00 83 1018.6
20260506120505 58 0 0.0 0.0 0.00 0.00 0.00 83 1018.6
20260506120005 58 0 0.0 0.0 0.00 0.00 0.00 83 1018.6
20260506114506 58 0 0.0 0.0 0.00 0.00 0.00 83 1018.3
20260506114005 58 0 0.0 0.0 0.00 0.00 0.00 83 1018.3
20260506113504 58 0 0.0 0.0 0.00 0.00 0.00 83 1018.2
20260506112006 58 0 0.0 0.0 0.00 0.00 0.00 82 1018.1
20260506111506 58 0 0.0 0.0 0.00 0.00 0.00 82 1018.1
20260506111005 58 0 0.0 0.0 0.00 0.00 0.00 82 1018.0
20260506110505 58 0 0.0 0.0 0.00 0.00 0.00 82 1017.9
20260506110005 58 0 0.0 0.0 0.00 0.00 0.00 82 1017.9
20260506105505 58 0 0.0 0.0 0.00 0.00 0.00 82 1017.8
20260506105005 58 0 0.0 0.0 0.00 0.00 0.00 82 1017.7
20260506104505 58 0 0.0 0.0 0.00 0.00 0.00 82 1017.6
20260506103005 58 0 0.0 0.0 0.00 0.00 0.00 82 1017.5
20260506102505 58 0 0.0 0.0 0.00 0.00 0.00 82 1017.4
20260506102005 58 0 0.0 0.0 0.00 0.00 0.00 82 1017.3
20260506101005 58 150 0.0 0.9 0.00 0.00 0.00 82 1017.2
20260506100505 58 177 0.0 2.6 0.00 0.00 0.00 82 1017.2
20260506095505 59 194 0.0 2.6 0.00 0.00 0.00 81 1017.2
20260506095005 59 139 0.0 0.9 0.00 0.00 0.00 82 1017.1
20260506094505 59 139 0.0 0.9 0.00 0.00 0.00 82 1017.1
20260506094005 59 140 0.0 0.9 0.00 0.00 0.00 82 1017.0
20260506093505 59 142 0.0 0.9 0.00 0.00 0.00 82 1017.0
20260506093005 59 142 0.0 0.9 0.00 0.00 0.00 82 1017.0
20260506092505 59 141 0.0 0.9 0.00 0.00 0.00 82 1017.0
20260506091505 59 146 0.0 1.7 0.00 0.00 0.00 83 1016.9
20260506091005 59 132 0.0 1.7 0.00 0.00 0.00 83 1016.9
20260506090505 59 127 0.0 1.7 0.00 0.00 0.00 83 1016.8
20260506090005 59 0 0.0 0.0 0.00 0.00 0.00 83 1016.9
20260506085005 59 90 0.0 0.9 0.00 0.00 0.00 83 1016.8
20260506084505 59 0 0.0 0.0 0.00 0.00 0.00 83 1016.8
20260506083005 59 0 0.0 0.0 0.00 0.00 0.00 84 1016.9
20260506082005 59 0 0.0 0.0 0.00 0.00 0.00 84 1016.9
20260506081506 59 0 0.0 0.0 0.00 0.00 0.00 84 1016.9
20260506081005 59 0 0.0 0.0 0.00 0.00 0.00 83 1016.8
20260506080506 59 0 0.0 0.0 0.00 0.00 0.00 83 1016.8
20260506073505 59 0 0.0 0.0 0.00 0.00 0.00 83 1016.5
20260506073005 59 0 0.0 0.0 0.00 0.00 0.00 83 1016.4
20260506072505 60 0 0.0 0.0 0.00 0.00 0.00 83 1016.4
20260506072005 60 0 0.0 0.0 0.00 0.00 0.00 83 1016.3
20260506071505 60 0 0.0 0.0 0.00 0.00 0.00 83 1016.4
20260506071005 60 0 0.0 0.0 0.00 0.00 0.00 83 1016.4
20260506070505 60 0 0.0 0.0 0.00 0.00 0.00 83 1016.3